Simultaneous Nadir Overpasses (SNOs) Predictions

Prediction of SNOs over PacNW region [( 10.00, 139.50) to ( 22.70, 165.60)] between AQUA and NPP Satellites:

Table of predicted SNOs over PacNW region for the next 30.0 days since TLE Epoch: 5/16/2019
Index Date (AQUA) Time (AQUA) AQUA Lat,Lon Date (NPP) Time (NPP) NPP Lat,Lon Distance(km) Time Diff (sec)
1 05/17/2019 03:31:55 22.67, 147.52 05/17/2019 03:28:25 26.88, 144.68 548.85 210
2 05/22/2019 15:59:27 22.61, 147.48 05/22/2019 16:01:44 23.26, 144.56 308.19 137
3 05/30/2019 15:09:56 22.60, 159.86 05/30/2019 15:11:05 23.18, 157.21 278.32 69
4 06/02/2019 03:31:44 22.67, 147.55 06/02/2019 03:28:15 25.88, 144.92 444.89 209
5 06/07/2019 15:59:16 22.59, 147.51 06/07/2019 16:01:52 23.25, 144.53 313.78 156




NCC Satellite Simultaneous Nadir Overpasses (SNOs) Prediction Service
